| time (UTC) | temp F | wind direction | speed knots | gust knots | rain 1hr in | rain 24hr in | rain mn in | humidity % | barometer mb |
| 20260831182502 | 101 | 135 | 0.9 | 3.5 | 0.00 | 0.00 | 0.00 | 46 | 1016.4 |
| 20260831181002 | 100 | 161 | 0.9 | 6.1 | 0.00 | 0.00 | 0.00 | 44 | 1016.6 |
| 20260831180502 | 100 | 168 | 0.9 | 4.3 | 0.00 | 0.00 | 0.00 | 46 | 1016.7 |
| 20260831180002 | 100 | 170 | 1.7 | 6.1 | 0.00 | 0.00 | 0.00 | 45 | 1016.7 |
| 20260831175502 | 100 | 168 | 1.7 | 6.1 | 0.00 | 0.00 | 0.00 | 45 | 1016.8 |
| 20260831175002 | 100 | 185 | 1.7 | 7.8 | 0.00 | 0.00 | 0.00 | 45 | 1016.8 |
| 20260831174503 | 100 | 204 | 0.0 | 7.8 | 0.00 | 0.00 | 0.00 | 46 | 1016.9 |
| 20260831174002 | 99 | 182 | 0.9 | 4.3 | 0.00 | 0.00 | 0.00 | 47 | 1017.0 |
| 20260831173002 | 98 | 181 | 1.7 | 6.1 | 0.00 | 0.00 | 0.00 | 48 | 1017.1 |
| 20260831172502 | 98 | 198 | 1.7 | 6.1 | 0.00 | 0.00 | 0.00 | 48 | 1017.1 |
| 20260831172002 | 98 | 193 | 1.7 | 7.0 | 0.00 | 0.00 | 0.00 | 49 | 1017.2 |
| 20260831171503 | 97 | 182 | 1.7 | 7.0 | 0.00 | 0.00 | 0.00 | 49 | 1017.3 |
| 20260831171002 | 97 | 188 | 1.7 | 6.1 | 0.00 | 0.00 | 0.00 | 49 | 1017.4 |
| 20260831170503 | 97 | 195 | 1.7 | 6.1 | 0.00 | 0.00 | 0.00 | 49 | 1017.4 |
| 20260831170002 | 97 | 183 | 1.7 | 6.1 | 0.00 | 0.00 | 0.00 | 49 | 1017.3 |
| 20260831165503 | 96 | 188 | 2.6 | 6.1 | 0.00 | 0.00 | 0.00 | 50 | 1017.5 |
| 20260831165002 | 96 | 183 | 2.6 | 6.1 | 0.00 | 0.00 | 0.00 | 50 | 1017.5 |
| 20260831164502 | 96 | 175 | 2.6 | 7.8 | 0.00 | 0.00 | 0.00 | 50 | 1017.5 |
| 20260831163502 | 96 | 196 | 1.7 | 4.3 | 0.00 | 0.00 | 0.00 | 51 | 1017.5 |
| 20260831163003 | 95 | 168 | 1.7 | 4.3 | 0.00 | 0.00 | 0.00 | 52 | 1017.5 |
| 20260831162502 | 95 | 176 | 2.6 | 7.0 | 0.00 | 0.00 | 0.00 | 52 | 1017.5 |
| 20260831162002 | 94 | 182 | 2.6 | 7.0 | 0.00 | 0.00 | 0.00 | 52 | 1017.7 |
| 20260831161502 | 94 | 209 | 1.7 | 5.2 | 0.00 | 0.00 | 0.00 | 53 | 1017.6 |
| 20260831161002 | 94 | 230 | 1.7 | 4.3 | 0.00 | 0.00 | 0.00 | 53 | 1017.6 |
| 20260831160503 | 94 | 211 | 1.7 | 3.5 | 0.00 | 0.00 | 0.00 | 53 | 1017.7 |
| 20260831160002 | 93 | 229 | 0.9 | 3.5 | 0.00 | 0.00 | 0.00 | 54 | 1017.7 |
| 20260831155502 | 93 | 191 | 1.7 | 6.1 | 0.00 | 0.00 | 0.00 | 55 | 1017.6 |
| 20260831155003 | 92 | 187 | 1.7 | 6.1 | 0.00 | 0.00 | 0.00 | 56 | 1017.6 |
| 20260831154002 | 92 | 195 | 1.7 | 6.1 | 0.00 | 0.00 | 0.00 | 57 | 1017.8 |
| 20260831153503 | 91 | 173 | 1.7 | 6.1 | 0.00 | 0.00 | 0.00 | 58 | 1017.7 |
| 20260831153003 | 91 | 181 | 1.7 | 6.1 | 0.00 | 0.00 | 0.00 | 58 | 1017.7 |
| 20260831152503 | 90 | 195 | 1.7 | 6.1 | 0.00 | 0.00 | 0.00 | 60 | 1017.6 |
| 20260831152002 | 90 | 220 | 1.7 | 6.1 | 0.00 | 0.00 | 0.00 | 62 | 1017.7 |
| 20260831150002 | 88 | 269 | 0.9 | 5.2 | 0.00 | 0.00 | 0.00 | 64 | 1017.5 |
| 20260831145503 | 88 | 271 | 1.7 | 5.2 | 0.00 | 0.00 | 0.00 | 65 | 1017.5 |
| 20260831145002 | 88 | 261 | 0.9 | 4.3 | 0.00 | 0.00 | 0.00 | 65 | 1017.4 |
| 20260831144503 | 88 | 238 | 0.9 | 4.3 | 0.00 | 0.00 | 0.00 | 67 | 1017.5 |
| 20260831144003 | 87 | 248 | 0.9 | 4.3 | 0.00 | 0.00 | 0.00 | 69 | 1017.5 |
| 20260831143503 | 87 | 248 | 0.9 | 4.3 | 0.00 | 0.00 | 0.00 | 69 | 1017.4 |
| 20260831142503 | 86 | 240 | 0.0 | 1.7 | 0.00 | 0.00 | 0.00 | 72 | 1017.4 |
| 20260831142002 | 85 | 235 | 0.0 | 3.5 | 0.00 | 0.00 | 0.00 | 73 | 1017.3 |
| 20260831141502 | 85 | 200 | 0.9 | 3.5 | 0.00 | 0.00 | 0.00 | 73 | 1017.3 |
| 20260831140502 | 84 | 192 | 0.9 | 3.5 | 0.00 | 0.00 | 0.00 | 74 | 1017.4 |
| 20260831140003 | 83 | 198 | 0.9 | 3.5 | 0.00 | 0.00 | 0.00 | 76 | 1017.4 |
| 20260831135502 | 82 | 191 | 0.9 | 3.5 | 0.00 | 0.00 | 0.00 | 77 | 1017.4 |
| 20260831135002 | 82 | 185 | 0.9 | 3.5 | 0.00 | 0.00 | 0.00 | 78 | 1017.3 |
| 20260831134503 | 81 | 189 | 0.0 | 2.6 | 0.00 | 0.00 | 0.00 | 79 | 1017.3 |
| 20260831134003 | 80 | 164 | 0.0 | 2.6 | 0.00 | 0.00 | 0.00 | 81 | 1017.1 |
| 20260831133502 | 79 | 164 | 0.0 | 2.6 | 0.00 | 0.00 | 0.00 | 82 | 1017.2 |
| 20260831132003 | 78 | 203 | 0.0 | 2.6 | 0.00 | 0.00 | 0.00 | 83 | 1016.9 |
| 20260831131502 | 78 | 204 | 0.0 | 2.6 | 0.00 | 0.00 | 0.00 | 83 | 1016.9 |
| 20260831131003 | 77 | 189 | 0.0 | 1.7 | 0.00 | 0.00 | 0.00 | 83 | 1016.7 |
| 20260831130503 | 77 | 0 | 0.0 | 0.0 | 0.00 | 0.00 | 0.00 | 83 | 1016.7 |
| 20260831125503 | 77 | 166 | 0.0 | 0.9 | 0.00 | 0.00 | 0.00 | 83 | 1016.6 |
| 20260831125003 | 76 | 0 | 0.0 | 0.0 | 0.00 | 0.00 | 0.00 | 83 | 1016.6 |
| 20260831124502 | 76 | 146 | 0.0 | 0.9 | 0.00 | 0.00 | 0.00 | 83 | 1016.5 |
| 20260831124003 | 76 | 157 | 0.0 | 2.6 | 0.00 | 0.00 | 0.00 | 83 | 1016.4 |
| 20260831123503 | 76 | 161 | 0.0 | 2.6 | 0.00 | 0.00 | 0.00 | 83 | 1016.4 |
| 20260831123003 | 76 | 0 | 0.0 | 0.0 | 0.00 | 0.00 | 0.00 | 82 | 1016.3 |
| 20260831122503 | 76 | 203 | 0.0 | 1.7 | 0.00 | 0.00 | 0.00 | 82 | 1016.3 |
| 20260831122002 | 76 | 203 | 0.0 | 1.7 | 0.00 | 0.00 | 0.00 | 82 | 1016.2 |
| 20260831121503 | 76 | 203 | 0.0 | 0.9 | 0.00 | 0.00 | 0.00 | 82 | 1016.1 |
| 20260831121002 | 76 | 202 | 0.0 | 1.7 | 0.00 | 0.00 | 0.00 | 82 | 1016.1 |
| 20260831120503 | 76 | 196 | 0.0 | 1.7 | 0.00 | 0.00 | 0.00 | 81 | 1016.0 |
| 20260831120002 | 76 | 179 | 0.0 | 1.7 | 0.00 | 0.00 | 0.00 | 81 | 1016.0 |
| 20260831115503 | 76 | 171 | 0.0 | 1.7 | 0.00 | 0.00 | 0.00 | 81 | 1016.0 |
| 20260831115003 | 76 | 163 | 0.0 | 1.7 | 0.00 | 0.00 | 0.00 | 81 | 1016.0 |
| 20260831114503 | 76 | 162 | 0.0 | 1.7 | 0.00 | 0.00 | 0.00 | 81 | 1015.8 |
| 20260831114003 | 76 | 158 | 0.0 | 0.9 | 0.00 | 0.00 | 0.00 | 80 | 1015.9 |
| 20260831113503 | 76 | 158 | 0.0 | 0.9 | 0.00 | 0.00 | 0.00 | 80 | 1015.7 |
| 20260831113002 | 76 | 158 | 0.0 | 0.9 | 0.00 | 0.00 | 0.00 | 79 | 1015.7 |
| 20260831112503 | 76 | 158 | 0.0 | 0.9 | 0.00 | 0.00 | 0.00 | 79 | 1015.6 |
| 20260831112003 | 77 | 0 | 0.0 | 0.0 | 0.00 | 0.00 | 0.00 | 78 | 1015.7 |
| 20260831111503 | 77 | 0 | 0.0 | 0.0 | 0.00 | 0.00 | 0.00 | 77 | 1015.5 |
| 20260831110503 | 78 | 0 | 0.0 | 0.0 | 0.00 | 0.00 | 0.00 | 76 | 1015.5 |
| 20260831110004 | 78 | 0 | 0.0 | 0.0 | 0.00 | 0.00 | 0.00 | 76 | 1015.5 |
| 20260831105503 | 78 | 0 | 0.0 | 0.0 | 0.00 | 0.00 | 0.00 | 75 | 1015.3 |
| 20260831105003 | 79 | 0 | 0.0 | 0.0 | 0.00 | 0.00 | 0.00 | 75 | 1015.4 |
| 20260831104503 | 79 | 0 | 0.0 | 0.0 | 0.00 | 0.00 | 0.00 | 75 | 1015.4 |
| 20260831104003 | 79 | 173 | 0.0 | 1.7 | 0.00 | 0.00 | 0.00 | 75 | 1015.3 |
| 20260831103503 | 79 | 175 | 0.0 | 1.7 | 0.00 | 0.00 | 0.00 | 74 | 1015.4 |
| 20260831103003 | 79 | 181 | 0.0 | 0.9 | 0.00 | 0.00 | 0.00 | 74 | 1015.3 |
| 20260831102003 | 80 | 0 | 0.0 | 0.0 | 0.00 | 0.00 | 0.00 | 73 | 1015.3 |
| 20260831101503 | 80 | 0 | 0.0 | 0.0 | 0.00 | 0.00 | 0.00 | 72 | 1015.4 |
| 20260831101003 | 80 | 181 | 0.0 | 0.9 | 0.00 | 0.00 | 0.00 | 72 | 1015.3 |
| 20260831100503 | 80 | 181 | 0.0 | 0.9 | 0.00 | 0.00 | 0.00 | 72 | 1015.3 |
| 20260831100003 | 80 | 181 | 0.0 | 1.7 | 0.00 | 0.00 | 0.00 | 71 | 1015.2 |
| 20260831095503 | 81 | 181 | 0.0 | 1.7 | 0.00 | 0.00 | 0.00 | 71 | 1015.2 |
| 20260831095003 | 81 | 179 | 0.0 | 1.7 | 0.00 | 0.00 | 0.00 | 70 | 1015.3 |
| 20260831094503 | 81 | 181 | 0.0 | 2.6 | 0.00 | 0.00 | 0.00 | 70 | 1015.4 |
| 20260831094003 | 81 | 195 | 0.9 | 2.6 | 0.00 | 0.00 | 0.00 | 70 | 1015.3 |
| 20260831093003 | 81 | 191 | 0.0 | 2.6 | 0.00 | 0.00 | 0.00 | 70 | 1015.2 |
| 20260831091503 | 82 | 183 | 0.0 | 2.6 | 0.00 | 0.00 | 0.00 | 69 | 1015.1 |
| 20260831091003 | 82 | 187 | 0.9 | 2.6 | 0.00 | 0.00 | 0.00 | 68 | 1015.0 |
| 20260831090503 | 82 | 184 | 0.0 | 2.6 | 0.00 | 0.00 | 0.00 | 68 | 1015.1 |
| 20260831090004 | 82 | 169 | 0.0 | 1.7 | 0.00 | 0.00 | 0.00 | 68 | 1014.9 |
| 20260831085503 | 82 | 166 | 0.0 | 1.7 | 0.00 | 0.00 | 0.00 | 68 | 1015.0 |
| 20260831085003 | 82 | 184 | 0.0 | 3.5 | 0.00 | 0.00 | 0.00 | 67 | 1015.0 |
| 20260831084003 | 83 | 177 | 0.9 | 3.5 | 0.00 | 0.00 | 0.00 | 67 | 1015.0 |
| 20260831083503 | 83 | 174 | 0.0 | 2.6 | 0.00 | 0.00 | 0.00 | 66 | 1014.9 |
| 20260831083003 | 83 | 182 | 0.9 | 3.5 | 0.00 | 0.00 | 0.00 | 66 | 1014.9 |
| 20260831082503 | 83 | 181 | 0.9 | 3.5 | 0.00 | 0.00 | 0.00 | 65 | 1014.8 |
| 20260831081503 | 84 | 181 | 0.9 | 3.5 | 0.00 | 0.00 | 0.00 | 65 | 1014.8 |
| 20260831081004 | 84 | 181 | 0.0 | 1.7 | 0.00 | 0.00 | 0.00 | 65 | 1014.7 |
| 20260831080503 | 84 | 206 | 0.0 | 2.6 | 0.00 | 0.00 | 0.00 | 64 | 1014.7 |
| 20260831080004 | 84 | 201 | 0.9 | 3.5 | 0.00 | 0.00 | 0.00 | 64 | 1014.6 |
| 20260831075503 | 84 | 201 | 0.9 | 3.5 | 0.00 | 0.00 | 0.00 | 64 | 1014.5 |
| 20260831075004 | 84 | 213 | 0.9 | 3.5 | 0.00 | 0.00 | 0.00 | 63 | 1014.4 |
| 20260831074503 | 84 | 207 | 0.9 | 3.5 | 0.00 | 0.00 | 0.00 | 63 | 1014.6 |
| 20260831074003 | 84 | 197 | 0.9 | 3.5 | 0.00 | 0.00 | 0.00 | 63 | 1014.6 |
| 20260831073503 | 84 | 199 | 0.9 | 4.3 | 0.00 | 0.00 | 0.00 | 63 | 1014.5 |
| 20260831073003 | 84 | 197 | 1.7 | 4.3 | 0.00 | 0.00 | 0.00 | 63 | 1014.4 |
| 20260831072503 | 84 | 195 | 1.7 | 4.3 | 0.00 | 0.00 | 0.00 | 63 | 1014.4 |
| 20260831072004 | 84 | 188 | 0.9 | 3.5 | 0.00 | 0.00 | 0.00 | 64 | 1014.4 |
| 20260831071503 | 83 | 185 | 0.9 | 5.2 | 0.00 | 0.00 | 0.00 | 64 | 1014.5 |
| 20260831070504 | 83 | 197 | 0.0 | 1.7 | 0.00 | 0.00 | 0.00 | 65 | 1014.4 |
| 20260831070003 | 83 | 198 | 0.0 | 1.7 | 0.00 | 0.00 | 0.00 | 65 | 1014.4 |
| 20260831065503 | 83 | 198 | 0.0 | 1.7 | 0.00 | 0.00 | 0.00 | 65 | 1014.4 |
| 20260831065003 | 83 | 199 | 0.0 | 0.9 | 0.00 | 0.00 | 0.00 | 65 | 1014.5 |
| 20260831064503 | 83 | 0 | 0.0 | 0.0 | 0.00 | 0.00 | 0.00 | 65 | 1014.4 |
| 20260831064004 | 83 | 198 | 0.0 | 1.7 | 0.00 | 0.00 | 0.00 | 64 | 1014.5 |
| 20260831063503 | 84 | 198 | 0.0 | 1.7 | 0.00 | 0.00 | 0.00 | 64 | 1014.5 |
| 20260831063003 | 84 | 199 | 0.0 | 2.6 | 0.00 | 0.00 | 0.00 | 64 | 1014.5 |
| 20260831062504 | 84 | 201 | 0.0 | 2.6 | 0.00 | 0.00 | 0.00 | 63 | 1014.5 |
| 20260831062003 | 84 | 201 | 0.0 | 1.7 | 0.00 | 0.00 | 0.00 | 63 | 1014.5 |
| 20260831061003 | 84 | 0 | 0.0 | 0.0 | 0.00 | 0.00 | 0.00 | 63 | 1014.5 |
| 20260831060004 | 84 | 201 | 0.0 | 0.9 | 0.00 | 0.00 | 0.00 | 63 | 1014.6 |
| 20260831055503 | 84 | 201 | 0.0 | 0.9 | 0.00 | 0.00 | 0.00 | 63 | 1014.6 |
| 20260831055004 | 84 | 0 | 0.0 | 0.0 | 0.00 | 0.00 | 0.00 | 62 | 1014.6 |
| 20260831054503 | 84 | 0 | 0.0 | 0.0 | 0.00 | 0.00 | 0.00 | 62 | 1014.6 |
| 20260831054004 | 85 | 202 | 0.0 | 0.9 | 0.00 | 0.00 | 0.00 | 61 | 1014.6 |
| 20260831053504 | 85 | 202 | 0.0 | 0.9 | 0.00 | 0.00 | 0.00 | 61 | 1014.6 |
| 20260831053003 | 85 | 202 | 0.0 | 0.9 | 0.00 | 0.00 | 0.00 | 61 | 1014.5 |
| 20260831052503 | 85 | 0 | 0.0 | 0.0 | 0.00 | 0.00 | 0.00 | 60 | 1014.5 |
| 20260831052003 | 85 | 0 | 0.0 | 0.0 | 0.00 | 0.00 | 0.00 | 60 | 1014.4 |
| 20260831051504 | 85 | 201 | 0.0 | 0.9 | 0.00 | 0.00 | 0.00 | 60 | 1014.3 |
| 20260831051004 | 86 | 201 | 0.0 | 0.9 | 0.00 | 0.00 | 0.00 | 59 | 1014.3 |
| 20260831050500 | 86 | 0 | 0.0 | 0.0 | 0.00 | 0.00 | 0.00 | 59 | 1014.3 |
| 20260831050001 | 86 | 0 | 0.0 | 0.0 | 0.00 | 0.00 | 0.00 | 59 | 1014.3 |
| 20260831045500 | 86 | 202 | 0.0 | 0.9 | 0.00 | 0.00 | 0.00 | 59 | 1014.3 |
| 20260831045000 | 86 | 202 | 0.0 | 1.7 | 0.00 | 0.00 | 0.00 | 59 | 1014.3 |
| 20260831044459 | 86 | 202 | 0.0 | 1.7 | 0.00 | 0.00 | 0.00 | 59 | 1014.3 |
| 20260831043959 | 86 | 201 | 0.0 | 0.9 | 0.00 | 0.00 | 0.00 | 59 | 1014.3 |
| 20260831043500 | 86 | 201 | 0.0 | 0.9 | 0.00 | 0.00 | 0.00 | 58 | 1014.3 |
| 20260831043000 | 86 | 0 | 0.0 | 0.0 | 0.00 | 0.00 | 0.00 | 58 | 1014.2 |
| 20260831042000 | 87 | 202 | 0.0 | 0.9 | 0.00 | 0.00 | 0.00 | 57 | 1014.2 |
| 20260831041500 | 87 | 202 | 0.0 | 0.9 | 0.00 | 0.00 | 0.00 | 57 | 1014.3 |
| 20260831041000 | 87 | 202 | 0.0 | 1.7 | 0.00 | 0.00 | 0.00 | 57 | 1014.3 |
| 20260831040501 | 87 | 202 | 0.0 | 1.7 | 0.00 | 0.00 | 0.00 | 57 | 1014.3 |
| 20260831040000 | 87 | 195 | 0.0 | 2.6 | 0.00 | 0.00 | 0.00 | 57 | 1014.1 |
| 20260831035500 | 87 | 181 | 0.0 | 2.6 | 0.00 | 0.00 | 0.00 | 57 | 1014.1 |
| 20260831035000 | 87 | 168 | 0.0 | 0.9 | 0.00 | 0.00 | 0.00 | 57 | 1014.1 |
| 20260831034500 | 87 | 168 | 0.0 | 1.7 | 0.00 | 0.00 | 0.00 | 57 | 1014.1 |
| 20260831034000 | 87 | 168 | 0.0 | 1.7 | 0.00 | 0.00 | 0.00 | 56 | 1014.0 |
| 20260831033500 | 87 | 168 | 0.0 | 0.9 | 0.00 | 0.00 | 0.00 | 56 | 1014.1 |
| 20260831032959 | 87 | 168 | 0.0 | 0.9 | 0.00 | 0.00 | 0.00 | 56 | 1014.0 |
| 20260831032500 | 88 | 168 | 0.0 | 0.9 | 0.00 | 0.00 | 0.00 | 56 | 1014.0 |
| 20260831032000 | 88 | 168 | 0.0 | 0.9 | 0.00 | 0.00 | 0.00 | 55 | 1014.0 |
| 20260831031500 | 88 | 168 | 0.0 | 1.7 | 0.00 | 0.00 | 0.00 | 55 | 1014.1 |
| 20260831031000 | 88 | 168 | 0.0 | 1.7 | 0.00 | 0.00 | 0.00 | 55 | 1014.2 |
| 20260831030500 | 88 | 168 | 0.0 | 1.7 | 0.00 | 0.00 | 0.00 | 55 | 1014.1 |
| 20260831025500 | 88 | 168 | 0.0 | 0.9 | 0.00 | 0.00 | 0.00 | 55 | 1013.9 |
| 20260831025000 | 88 | 0 | 0.0 | 0.0 | 0.00 | 0.00 | 0.00 | 54 | 1013.9 |
| 20260831024500 | 89 | 0 | 0.0 | 0.0 | 0.00 | 0.00 | 0.00 | 54 | 1013.9 |
| 20260831024000 | 89 | 168 | 0.0 | 0.9 | 0.00 | 0.00 | 0.00 | 54 | 1013.8 |
| 20260831023500 | 89 | 167 | 0.0 | 1.7 | 0.00 | 0.00 | 0.00 | 53 | 1013.7 |
| 20260831022500 | 89 | 164 | 0.0 | 0.9 | 0.00 | 0.00 | 0.00 | 53 | 1013.6 |
| 20260831022000 | 89 | 163 | 0.0 | 1.7 | 0.00 | 0.00 | 0.00 | 53 | 1013.6 |
| 20260831021500 | 89 | 163 | 0.0 | 1.7 | 0.00 | 0.00 | 0.00 | 53 | 1013.5 |
| 20260831020501 | 90 | 163 | 0.0 | 1.7 | 0.00 | 0.00 | 0.00 | 53 | 1013.3 |
| 20260831020000 | 90 | 0 | 0.0 | 0.0 | 0.00 | 0.00 | 0.00 | 52 | 1013.2 |
| 20260831015500 | 90 | 0 | 0.0 | 0.0 | 0.00 | 0.00 | 0.00 | 52 | 1013.1 |
| 20260831015000 | 90 | 0 | 0.0 | 0.0 | 0.00 | 0.00 | 0.00 | 52 | 1013.1 |
| 20260831014500 | 91 | 169 | 0.0 | 0.9 | 0.00 | 0.00 | 0.00 | 52 | 1013.0 |
| 20260831014000 | 91 | 169 | 0.0 | 0.9 | 0.00 | 0.00 | 0.00 | 51 | 1012.9 |
| 20260831013001 | 92 | 165 | 0.0 | 1.7 | 0.00 | 0.00 | 0.00 | 50 | 1012.9 |
| 20260831012500 | 92 | 163 | 0.0 | 1.7 | 0.00 | 0.00 | 0.00 | 50 | 1012.9 |
| 20260831012000 | 92 | 161 | 0.0 | 2.6 | 0.00 | 0.00 | 0.00 | 49 | 1012.8 |
| 20260831011500 | 92 | 166 | 0.0 | 2.6 | 0.00 | 0.00 | 0.00 | 49 | 1012.8 |
| 20260831010500 | 93 | 168 | 0.0 | 2.6 | 0.00 | 0.00 | 0.00 | 48 | 1012.8 |
| 20260831010000 | 94 | 176 | 0.0 | 2.6 | 0.00 | 0.00 | 0.00 | 47 | 1012.7 |
| 20260831005500 | 94 | 174 | 0.9 | 2.6 | 0.00 | 0.00 | 0.00 | 46 | 1012.7 |
| 20260831005000 | 94 | 168 | 0.0 | 2.6 | 0.00 | 0.00 | 0.00 | 46 | 1012.8 |
| 20260831004500 | 95 | 160 | 0.0 | 0.9 | 0.00 | 0.00 | 0.00 | 45 | 1012.6 |
| 20260831004001 | 95 | 169 | 0.0 | 2.6 | 0.00 | 0.00 | 0.00 | 44 | 1012.7 |
| 20260831003500 | 96 | 166 | 0.9 | 2.6 | 0.00 | 0.00 | 0.00 | 44 | 1012.6 |
| 20260831003000 | 97 | 163 | 0.9 | 2.6 | 0.00 | 0.00 | 0.00 | 44 | 1012.6 |
| 20260831002501 | 97 | 158 | 0.0 | 2.6 | 0.00 | 0.00 | 0.00 | 44 | 1012.5 |
| 20260831002000 | 98 | 151 | 0.0 | 4.3 | 0.00 | 0.00 | 0.00 | 44 | 1012.5 |
| 20260831001501 | 98 | 150 | 0.0 | 4.3 | 0.00 | 0.00 | 0.00 | 43 | 1012.6 |
| 20260831001000 | 99 | 155 | 0.0 | 1.7 | 0.00 | 0.00 | 0.00 | 42 | 1012.7 |
| 20260831000500 | 100 | 153 | 0.9 | 4.3 | 0.00 | 0.00 | 0.00 | 42 | 1012.6 |
| 20260831000000 | 99 | 155 | 0.9 | 5.2 | 0.00 | 0.00 | 0.00 | 42 | 1012.7 |
| 20260830235501 | 99 | 143 | 0.9 | 5.2 | 0.00 | 0.00 | 0.00 | 42 | 1012.7 |
| 20260830235000 | 100 | 111 | 0.0 | 4.3 | 0.00 | 0.00 | 0.00 | 42 | 1012.8 |
| 20260830234500 | 100 | 146 | 0.9 | 3.5 | 0.00 | 0.00 | 0.00 | 41 | 1012.7 |
| 20260830233500 | 100 | 128 | 0.9 | 3.5 | 0.00 | 0.00 | 0.00 | 42 | 1012.8 |
| 20260830233000 | 101 | 120 | 0.9 | 3.5 | 0.00 | 0.00 | 0.00 | 41 | 1012.8 |
| 20260830232500 | 101 | 144 | 0.9 | 4.3 | 0.00 | 0.00 | 0.00 | 41 | 1012.9 |
| 20260830232000 | 101 | 155 | 0.9 | 4.3 | 0.00 | 0.00 | 0.00 | 41 | 1012.8 |
| 20260830231500 | 101 | 161 | 0.9 | 5.2 | 0.00 | 0.00 | 0.00 | 40 | 1012.9 |
| 20260830231000 | 101 | 165 | 0.9 | 5.2 | 0.00 | 0.00 | 0.00 | 41 | 1012.9 |
| 20260830230501 | 101 | 171 | 0.9 | 3.5 | 0.00 | 0.00 | 0.00 | 40 | 1012.9 |
| 20260830230000 | 101 | 161 | 0.9 | 4.3 | 0.00 | 0.00 | 0.00 | 41 | 1013.0 |
| 20260830225501 | 101 | 162 | 0.9 | 4.3 | 0.00 | 0.00 | 0.00 | 41 | 1013.0 |
| 20260830225001 | 100 | 175 | 0.9 | 3.5 | 0.00 | 0.00 | 0.00 | 41 | 1013.1 |
| 20260830224500 | 100 | 179 | 0.9 | 3.5 | 0.00 | 0.00 | 0.00 | 41 | 1013.1 |
| 20260830224000 | 99 | 179 | 0.9 | 3.5 | 0.00 | 0.00 | 0.00 | 41 | 1013.1 |
| 20260830223501 | 99 | 182 | 0.9 | 3.5 | 0.00 | 0.00 | 0.00 | 41 | 1013.1 |
| 20260830223001 | 99 | 186 | 1.7 | 7.0 | 0.00 | 0.00 | 0.00 | 41 | 1013.1 |
| 20260830222001 | 100 | 183 | 2.6 | 7.0 | 0.00 | 0.00 | 0.00 | 41 | 1013.2 |
| 20260830221501 | 100 | 174 | 0.9 | 7.0 | 0.00 | 0.00 | 0.00 | 40 | 1013.1 |
| 20260830221000 | 100 | 116 | 0.9 | 3.5 | 0.00 | 0.00 | 0.00 | 42 | 1013.1 |
| 20260830220001 | 101 | 158 | 1.7 | 11.3 | 0.00 | 0.00 | 0.00 | 40 | 1013.0 |
| 20260830215501 | 101 | 145 | 0.9 | 6.1 | 0.00 | 0.00 | 0.00 | 40 | 1013.0 |
| 20260830215000 | 100 | 142 | 1.7 | 4.3 | 0.00 | 0.00 | 0.00 | 42 | 1013.2 |
| 20260830214501 | 100 | 163 | 0.9 | 4.3 | 0.00 | 0.00 | 0.00 | 41 | 1013.2 |
| 20260830214001 | 100 | 177 | 1.7 | 6.1 | 0.00 | 0.00 | 0.00 | 38 | 1013.2 |
| 20260830213001 | 101 | 168 | 0.9 | 6.1 | 0.00 | 0.00 | 0.00 | 37 | 1013.4 |
| 20260830212501 | 101 | 168 | 1.7 | 6.1 | 0.00 | 0.00 | 0.00 | 37 | 1013.4 |
| 20260830211501 | 103 | 157 | 1.7 | 7.0 | 0.00 | 0.00 | 0.00 | 36 | 1013.6 |
| 20260830211000 | 103 | 151 | 1.7 | 7.0 | 0.00 | 0.00 | 0.00 | 38 | 1013.4 |
| 20260830205001 | 102 | 183 | 3.5 | 11.3 | 0.00 | 0.00 | 0.00 | 38 | 1013.7 |
| 20260830204500 | 102 | 202 | 2.6 | 11.3 | 0.00 | 0.00 | 0.00 | 38 | 1013.8 |
| 20260830204001 | 102 | 196 | 2.6 | 7.0 | 0.00 | 0.00 | 0.00 | 38 | 1013.9 |
| 20260830203000 | 102 | 170 | 1.7 | 5.2 | 0.00 | 0.00 | 0.00 | 39 | 1014.0 |
| 20260830202501 | 102 | 168 | 1.7 | 5.2 | 0.00 | 0.00 | 0.00 | 40 | 1014.1 |
| 20260830201500 | 100 | 183 | 3.5 | 8.7 | 0.00 | 0.00 | 0.00 | 41 | 1014.4 |
| 20260830200501 | 101 | 176 | 1.7 | 7.0 | 0.00 | 0.00 | 0.00 | 41 | 1014.4 |
| 20260830200001 | 101 | 170 | 2.6 | 6.1 | 0.00 | 0.00 | 0.00 | 41 | 1014.5 |
| 20260830195001 | 100 | 181 | 2.6 | 8.7 | 0.00 | 0.00 | 0.00 | 41 | 1014.6 |
| 20260830194501 | 100 | 183 | 2.6 | 7.0 | 0.00 | 0.00 | 0.00 | 42 | 1014.7 |
| 20260830194000 | 100 | 166 | 2.6 | 10.4 | 0.00 | 0.00 | 0.00 | 42 | 1014.8 |
| 20260830193501 | 100 | 169 | 3.5 | 10.4 | 0.00 | 0.00 | 0.00 | 40 | 1014.9 |
| 20260830193001 | 101 | 173 | 2.6 | 8.7 | 0.00 | 0.00 | 0.00 | 41 | 1014.8 |
| 20260830192502 | 101 | 197 | 2.6 | 8.7 | 0.00 | 0.00 | 0.00 | 44 | 1014.8 |
| 20260830191502 | 100 | 196 | 3.5 | 10.4 | 0.00 | 0.00 | 0.00 | 43 | 1015.1 |
| 20260830191000 | 100 | 190 | 2.6 | 7.0 | 0.00 | 0.00 | 0.00 | 43 | 1015.2 |
| 20260830190501 | 100 | 183 | 3.5 | 7.8 | 0.00 | 0.00 | 0.00 | 44 | 1015.3 |
| 20260830190000 | 100 | 183 | 3.5 | 9.6 | 0.00 | 0.00 | 0.00 | 43 | 1015.4 |
| 20260830185501 | 100 | 185 | 2.6 | 9.6 | 0.00 | 0.00 | 0.00 | 44 | 1015.3 |
| 20260830185002 | 100 | 178 | 3.5 | 9.6 | 0.00 | 0.00 | 0.00 | 43 | 1015.5 |
| 20260830184501 | 100 | 176 | 3.5 | 9.6 | 0.00 | 0.00 | 0.00 | 44 | 1015.5 |
| 20260830184001 | 100 | 188 | 3.5 | 9.6 | 0.00 | 0.00 | 0.00 | 44 | 1015.6 |
| 20260830183500 | 100 | 183 | 3.5 | 8.7 | 0.00 | 0.00 | 0.00 | 44 | 1015.7 |